DRZF weather

Diffa Airport
Diffa, Diffa Region, Niger

Public forecast

Using degrees Celsius for public forecast. Weather courtesy of forecast.io.

METAR (pilot weather report)

Report is more than 6 hours old.

Retrieved 2009/08/20 13:44 UTC (10 years ago):

DRZF 201344Z 22006KT 9999 TS SCT014 FEW043CB BKN300

TAF (pilot weather forecast)

Forecast is more than 12 hours old.

Closest forecast is Maiduguri International Airport, 94.9 nm (175.8 km) SSE. Retrieved 2019/04/23 06:21 UTC (2 days ago):

TAF DNMA 230330Z 2306/2412 04008KT 7000 NSC TEMPO 2306/2310 5000HZ